• In India
  • List of Countries
  • For 7 days
  • Water Temperature
  • Satellite Maps
  • Weather Map
  • Weather Widgets
  • user-avatar
    Login

    Hourly Weather Mochudi

    Today, 23 June, Saturday

    Time Temperature Precipitation Wind Pressure Humidity
    00:00 +14°C° 0 mm 0 mps 685 mmHg 30%
    01:00 +14°C° 0 mm 0 mps 684 mmHg 31%
    02:00 +13°C° 0 mm 0 mps 685 mmHg 34%
    03:00 +14°C° 0 mm 1 mps 684 mmHg 35%
    04:00 +13°C° 0 mm 1 mps 684 mmHg 35%
    05:00 +13°C° 0 mm 1 mps 684 mmHg 36%
    06:00 +13°C° 0 mm 1 mps 685 mmHg 37%
    07:00 +14°C° 0 mm 1 mps 685 mmHg 37%
    08:00 +15°C° 0 mm 1 mps 686 mmHg 41%
    09:00 +17°C° 0 mm 2 mps 686 mmHg 38%
    10:00 +19°C° 0 mm 2 mps 686 mmHg 35%
    11:00 +22°C° 0 mm 3 mps 686 mmHg 33%
    12:00 +24°C° 0 mm 3 mps 686 mmHg 29%
    13:00 +25°C° 0 mm 3 mps 686 mmHg 26%
    14:00 +25°C° 0 mm 2 mps 685 mmHg 23%
    15:00 +25°C° 0 mm 2 mps 685 mmHg 23%
    16:00 +24°C° 0 mm 1 mps 684 mmHg 23%
    17:00 +24°C° 0 mm 1 mps 684 mmHg 24%
    18:00 +22°C° 0 mm 1 mps 684 mmHg 27%
    19:00 +20°C° 0 mm 1 mps 684 mmHg 30%
    20:00 +18°C° 0 mm 1 mps 684 mmHg 33%
    21:00 +18°C° 0 mm 1 mps 684 mmHg 34%
    22:00 +16°C° 0 mm 1 mps 684 mmHg 34%
    23:00 +16°C° 0 mm 1 mps 684 mmHg 35%

    Tomorrow, 24 June, Sunday

    Time Temperature Precipitation Wind Pressure Humidity
    00:00 +15°C° 0 mm 1 mps 684 mmHg 36%
    01:00 +15°C° 0 mm 1 mps 683 mmHg 38%
    02:00 +14°C° 0 mm 1 mps 683 mmHg 39%
    03:00 +14°C° 0 mm 1 mps 683 mmHg 40%
    04:00 +12°C° 0 mm 0 mps 683 mmHg 42%
    05:00 +12°C° 0 mm 0 mps 683 mmHg 43%
    06:00 +12°C° 0 mm 0 mps 683 mmHg 42%
    07:00 +13°C° 0 mm 0 mps 683 mmHg 42%
    08:00 +13°C° 0 mm 0 mps 684 mmHg 41%
    09:00 +16°C° 0 mm 0 mps 685 mmHg 35%
    10:00 +19°C° 0 mm 0 mps 685 mmHg 29%
    11:00 +22°C° 0 mm 0 mps 686 mmHg 23%
    12:00 +25°C° 0 mm 1 mps 685 mmHg 21%
    13:00 +26°C° 0 mm 1 mps 685 mmHg 19%
    14:00 +26°C° 0 mm 1 mps 685 mmHg 17%
    15:00 +26°C° 0 mm 1 mps 684 mmHg 18%
    16:00 +25°C° 0 mm 1 mps 684 mmHg 18%
    17:00 +24°C° 0 mm 1 mps 684 mmHg 19%
    18:00 +23°C° 0 mm 1 mps 684 mmHg 21%
    19:00 +21°C° 0 mm 1 mps 684 mmHg 23%
    20:00 +19°C° 0 mm 1 mps 684 mmHg 25%
    21:00 +16°C° 0 mm 0 mps 684 mmHg 26%
    22:00 +16°C° 0 mm 0 mps 684 mmHg 27%
    23:00 +15°C° 0 mm 0 mps 683 mmHg 28%

    Day after tomorrow, 25 June, Monday

    Time Temperature Precipitation Wind Pressure Humidity
    00:00 +15°C° 0 mm 0 mps 683 mmHg 29%
    01:00 +14°C° 0 mm 0 mps 683 mmHg 30%
    02:00 +14°C° 0 mm 0 mps 683 mmHg 31%
    03:00 +13°C° 0 mm 0 mps 683 mmHg 32%
    04:00 +13°C° 0 mm 0 mps 683 mmHg 33%
    05:00 +12°C° 0 mm 0 mps 682 mmHg 34%
    06:00 +14°C° 0 mm 1 mps 683 mmHg 34%
    07:00 +14°C° 0 mm 1 mps 683 mmHg 33%
    08:00 +14°C° 0 mm 1 mps 684 mmHg 33%
    09:00 +18°C° 0 mm 1 mps 684 mmHg 28%
    10:00 +20°C° 0 mm 2 mps 685 mmHg 24%
    11:00 +22°C° 0 mm 3 mps 686 mmHg 20%
    12:00 +24°C° 0 mm 3 mps 685 mmHg 19%
    13:00 +25°C° 0 mm 3 mps 684 mmHg 18%
    14:00 +26°C° 0 mm 3 mps 684 mmHg 17%
    15:00 +25°C° 0 mm 2 mps 684 mmHg 17%
    16:00 +25°C° 0 mm 2 mps 683 mmHg 18%
    17:00 +24°C° 0 mm 1 mps 683 mmHg 19%
    18:00 +22°C° 0 mm 1 mps 683 mmHg 22%
    19:00 +21°C° 0 mm 1 mps 683 mmHg 24%
    20:00 +18°C° 0 mm 2 mps 683 mmHg 27%
    21:00 +17°C° 0 mm 2 mps 683 mmHg 29%
    22:00 +17°C° 0 mm 2 mps 683 mmHg 31%
    23:00 +16°C° 0 mm 2 mps 683 mmHg 33%

    26 June, Tuesday

    Time Temperature Precipitation Wind Pressure Humidity
    00:00 +15°C° 0 mm 2 mps 683 mmHg 36%
    01:00 +15°C° 0 mm 2 mps 683 mmHg 39%
    02:00 +14°C° 0 mm 2 mps 683 mmHg 43%
    03:00 +13°C° 0 mm 2 mps 683 mmHg 45%
    04:00 +13°C° 0 mm 2 mps 683 mmHg 48%
    05:00 +12°C° 0 mm 2 mps 683 mmHg 50%
    06:00 +13°C° 0 mm 2 mps 683 mmHg 51%
    07:00 +13°C° 0 mm 2 mps 684 mmHg 53%
    08:00 +13°C° 0 mm 2 mps 684 mmHg 54%
    09:00 +16°C° 0 mm 3 mps 685 mmHg 47%
    10:00 +19°C° 0 mm 4 mps 685 mmHg 41%
    11:00 +21°C° 0 mm 4 mps 686 mmHg 35%
    12:00 +22°C° 0 mm 4 mps 685 mmHg 31%
    13:00 +25°C° 0 mm 4 mps 685 mmHg 27%
    14:00 +26°C° 0 mm 4 mps 684 mmHg 23%
    15:00 +25°C° 0 mm 3 mps 684 mmHg 23%
    16:00 +25°C° 0 mm 2 mps 684 mmHg 23%
    17:00 +24°C° 0 mm 2 mps 683 mmHg 24%
    18:00 +21°C° 0 mm 2 mps 683 mmHg 26%
    19:00 +20°C° 0 mm 2 mps 683 mmHg 29%
    20:00 +18°C° 0 mm 2 mps 684 mmHg 32%
    21:00 +18°C° 0 mm 2 mps 684 mmHg 33%
    22:00 +17°C° 0 mm 2 mps 684 mmHg 35%
    23:00 +17°C° 0 mm 2 mps 684 mmHg 36%

    27 June, Wednesday

    Time Temperature Precipitation Wind Pressure Humidity
    00:00 +16°C° 0 mm 2 mps 684 mmHg 40%
    01:00 +15°C° 0 mm 2 mps 684 mmHg 44%
    02:00 +14°C° 0 mm 2 mps 684 mmHg 48%
    03:00 +14°C° 0 mm 2 mps 684 mmHg 50%
    04:00 +13°C° 0 mm 2 mps 684 mmHg 53%
    05:00 +13°C° 0 mm 2 mps 684 mmHg 56%
    06:00 +13°C° 0 mm 1 mps 684 mmHg 56%
    07:00 +13°C° 0 mm 1 mps 685 mmHg 56%
    08:00 +13°C° 0 mm 1 mps 685 mmHg 57%
    09:00 +16°C° 0 mm 2 mps 686 mmHg 50%
    10:00 +18°C° 0 mm 2 mps 686 mmHg 44%
    11:00 +21°C° 0 mm 3 mps 687 mmHg 38%
    12:00 +22°C° 0 mm 3 mps 686 mmHg 33%
    13:00 +24°C° 0 mm 3 mps 686 mmHg 29%
    14:00 +26°C° 0 mm 2 mps 685 mmHg 25%
    15:00 +25°C° 0 mm 2 mps 685 mmHg 25%
    16:00 +25°C° 0 mm 1 mps 684 mmHg 24%
    17:00 +24°C° 0 mm 1 mps 684 mmHg 24%
    18:00 +22°C° 0 mm 1 mps 684 mmHg 27%
    19:00 +21°C° 0 mm 1 mps 684 mmHg 30%
    20:00 +19°C° 0 mm 1 mps 684 mmHg 33%
    21:00 +18°C° 0 mm 1 mps 684 mmHg 34%
    22:00 +18°C° 0 mm 1 mps 684 mmHg 36%
    23:00 +16°C° 0 mm 1 mps 684 mmHg 37%

    28 June, Thursday

    Time Temperature Precipitation Wind Pressure Humidity
    00:00 +16°C° 0 mm 1 mps 684 mmHg 38%
    01:00 +15°C° 0 mm 1 mps 684 mmHg 39%
    02:00 +14°C° 0 mm 0 mps 684 mmHg 41%
    03:00 +13°C° 0 mm 0 mps 684 mmHg 42%
    04:00 +14°C° 0 mm 1 mps 684 mmHg 43%
    05:00 +13°C° 0 mm 1 mps 684 mmHg 44%
    06:00 +14°C° 0 mm 1 mps 684 mmHg 43%
    07:00 +14°C° 0 mm 1 mps 685 mmHg 43%
    08:00 +14°C° 0 mm 1 mps 685 mmHg 42%
    09:00 +18°C° 0 mm 1 mps 686 mmHg 37%
    10:00 +19°C° 0 mm 2 mps 687 mmHg 32%
    11:00 +23°C° 0 mm 2 mps 687 mmHg 27%
    12:00 +24°C° 0 mm 2 mps 687 mmHg 24%
    13:00 +25°C° 0 mm 2 mps 686 mmHg 22%
    14:00 +26°C° 0 mm 2 mps 686 mmHg 20%
    15:00 +25°C° 0 mm 2 mps 685 mmHg 20%
    16:00 +25°C° 0 mm 2 mps 685 mmHg 21%
    17:00 +24°C° 0 mm 1 mps 685 mmHg 21%
    18:00 +23°C° 0 mm 1 mps 685 mmHg 25%
    19:00 +21°C° 0 mm 1 mps 685 mmHg 28%
    20:00 +19°C° 0 mm 1 mps 685 mmHg 31%
    21:00 +18°C° 0 mm 1 mps 685 mmHg 33%
    22:00 +18°C° 0 mm 1 mps 685 mmHg 35%
    23:00 +16°C° 0 mm 1 mps 685 mmHg 36%
    Show more